This is the latest recevied weather packets stored in our database for station/object N8TWM-13. If no packets are shown the sender has not sent any weather packets the latest 10 day(s).
| Time | Temp. | Humidity | Pressure | Rain* | Wind** | Luminosity | Snow |
|---|---|---|---|---|---|---|---|
| 1777135057 | 14.44° C | 88% | 1011.9 hPa | 0 mm | - | 82 W/m² | - |
| 1777134755 | 14.44° C | 87% | 1012.1 hPa | 0 mm | - | 81 W/m² | - |
| 1777134450 | 15° C | 87% | 1012 hPa | 0 mm | - | 122 W/m² | - |
| 1777134147 | 15° C | 87% | 1011.9 hPa | 0 mm | - | 133 W/m² | - |
| 1777133844 | 15° C | 87% | 1011.9 hPa | 0 mm | - | 264 W/m² | - |
| 1777133540 | 15° C | 87% | 1011.9 hPa | 0 mm | - | 229 W/m² | - |
| 1777133234 | 15° C | 86% | 1011.9 hPa | 0 mm | - | 154 W/m² | - |
| 1777132934 | 15° C | 86% | 1012 hPa | 0 mm | - | 204 W/m² | - |
| 1777132630 | 15.56° C | 86% | 1011.8 hPa | 0 mm | - | 123 W/m² | - |
| 1777132327 | 15° C | 86% | 1011.7 hPa | 0 mm | - | 105 W/m² | - |
| 1777132023 | 15° C | 86% | 1011.7 hPa | 0 mm | - | 134 W/m² | - |
| 1777131723 | 15.56° C | 86% | 1011.6 hPa | 0 mm | - | 100 W/m² | - |
| 1777131421 | 15.56° C | 86% | 1011.5 hPa | 0 mm | - | 124 W/m² | - |
| 1777131120 | 15° C | 86% | 1011.5 hPa | 0 mm | - | 201 W/m² | - |
| 1777130816 | 15° C | 87% | 1011.4 hPa | 0 mm | - | 235 W/m² | - |
| 1777130512 | 15° C | 88% | 1011.5 hPa | 0 mm | - | 158 W/m² | - |
| 1777130208 | 14.44° C | 89% | 1011.8 hPa | 0 mm | - | 140 W/m² | - |
| 1777129904 | 14.44° C | 89% | 1011.5 hPa | 0 mm | - | 200 W/m² | - |
| 1777129600 | 14.44° C | 90% | 1011.3 hPa | 0 mm | - | 125 W/m² | - |
| 1777129299 | 14.44° C | 91% | 1011.2 hPa | 0 mm | - | 200 W/m² | - |
| 1777128995 | 14.44° C | 91% | 1011.2 hPa | 0 mm | - | 165 W/m² | - |
| 1777128691 | 13.89° C | 91% | 1011 hPa | 0 mm | - | 66 W/m² | - |
| 1777128389 | 13.89° C | 92% | 1011.3 hPa | 0 mm | - | 70 W/m² | - |
| 1777128086 | 13.89° C | 92% | 1011.3 hPa | 0 mm | - | 81 W/m² | - |
| 1777127784 | 14.44° C | 92% | 1011.2 hPa | 0 mm | - | 68 W/m² | - |
* Rain latest hour (hover to see other rain measurements)
** Current wind speed in m/s (hover to see current wind gust speed)